TimePDT,TemperatureF,Dew PointF,Humidity,Sea Level PressureIn,VisibilityMPH,Wind Direction,Wind SpeedMPH,Gust SpeedMPH,PrecipitationIn,Events,Conditions,WindDirDegrees,DateUTC
12:53 AM,55.9,55.9,100,30.19,10.0,WNW,8.1,-,N/A,,Overcast,290,2013-05-11 07:53:00
1:53 AM,55.0,55.0,100,30.17,10.0,NW,3.5,-,N/A,,Overcast,320,2013-05-11 08:53:00
2:53 AM,55.9,55.9,100,30.15,10.0,ENE,3.5,-,N/A,,Overcast,60,2013-05-11 09:53:00
3:53 AM,55.9,55.9,100,30.14,10.0,Calm,Calm,-,N/A,,Overcast,0,2013-05-11 10:53:00
4:53 AM,57.0,55.9,96,30.12,10.0,Calm,Calm,-,N/A,,Overcast,0,2013-05-11 11:53:00
5:53 AM,57.0,57.0,100,30.12,10.0,Calm,Calm,-,N/A,,Overcast,0,2013-05-11 12:53:00
6:53 AM,57.0,57.0,100,30.13,8.0,NW,6.9,-,N/A,,Overcast,310,2013-05-11 13:53:00
7:53 AM,57.0,57.0,100,30.13,8.0,Variable,3.5,-,N/A,,Overcast,0,2013-05-11 14:53:00
8:53 AM,57.9,57.9,100,30.14,8.0,South,3.5,-,N/A,,Mostly Cloudy,190,2013-05-11 15:53:00
9:16 AM,59.0,57.2,94,30.13,10.0,Variable,3.5,-,N/A,,Scattered Clouds,0,2013-05-11 16:16:00
9:53 AM,60.1,57.9,93,30.13,10.0,WSW,4.6,-,N/A,,Scattered Clouds,240,2013-05-11 16:53:00
10:53 AM,63.0,59.0,87,30.13,10.0,West,8.1,-,N/A,,Scattered Clouds,260,2013-05-11 17:53:00
11:53 AM,66.9,57.9,73,30.12,10.0,West,6.9,-,N/A,,Scattered Clouds,260,2013-05-11 18:53:00
12:53 PM,73.9,55.9,53,30.12,10.0,NW,9.2,-,N/A,,Scattered Clouds,310,2013-05-11 19:53:00
1:53 PM,73.0,54.0,51,30.10,10.0,WNW,12.7,-,N/A,,Scattered Clouds,300,2013-05-11 20:53:00
2:53 PM,70.0,55.0,59,30.09,10.0,WNW,15.0,-,N/A,,Mostly Cloudy,300,2013-05-11 21:53:00
3:04 PM,69.8,55.4,60,30.09,10.0,WNW,13.8,-,N/A,,Mostly Cloudy,300,2013-05-11 22:04:00
3:53 PM,66.9,55.9,68,30.08,10.0,WNW,17.3,-,N/A,,Mostly Cloudy,300,2013-05-11 22:53:00
4:53 PM,72.0,52.0,49,30.08,10.0,WNW,11.5,-,N/A,,Mostly Cloudy,290,2013-05-11 23:53:00
5:53 PM,66.0,57.9,75,30.08,10.0,WNW,12.7,-,N/A,,Mostly Cloudy,290,2013-05-12 00:53:00
6:53 PM,62.6,57.2,82,30.08,10.0,WNW,12.7,-,N/A,,Mostly Cloudy,300,2013-05-12 01:53:00
7:53 PM,57.9,57.0,97,30.09,10.0,WNW,15.0,-,N/A,Fog,Mostly Cloudy,300,2013-05-12 02:53:00
8:53 PM,57.0,57.0,100,30.11,10.0,WNW,11.5,-,N/A,,Mostly Cloudy,300,2013-05-12 03:53:00
9:53 PM,57.0,57.0,100,30.14,10.0,West,11.5,-,N/A,,Scattered Clouds,280,2013-05-12 04:53:00
10:53 PM,55.9,55.9,100,30.16,10.0,WNW,6.9,-,N/A,,Scattered Clouds,300,2013-05-12 05:53:00
11:09 PM,55.4,55.4,100,30.16,10.0,WNW,8.1,-,N/A,,Mostly Cloudy,300,2013-05-12 06:09:00
11:53 PM,57.0,55.9,96,30.16,10.0,West,5.8,-,N/A,,Mostly Cloudy,260,2013-05-12 06:53:00